Location: Pcim
(49.7500°N, 19.9670°E)
Time: 14:57:57
(UTC+02:00)

NOAA 18 - Pass Details

Date: 01 May 2024
Orbit: 837 x 859 km, 98.9° (Epoch: 21 May)

Event Time Altitude Azimuth Distance (km) Brightness Sun altitude
Exits shadow 20:30:44 - 96° (E) 3,105 7.6 -5.4°
Reaches altitude 10° 20:33:17 10° 77° (ENE) 2,496 7.2 -5.7°
Maximum altitude 20:35:51 14° 49° (NE) 2,254 7.3 -6.1°
Drops below altitude 10° 20:38:24 10° 21° (NNE) 2,497 7.8 -6.4°
Sets 20:42:03 0° 357° (N) 3,434 8.9 -6.9°
